TimeCST,TemperatureF,Dew PointF,Humidity,Sea Level PressureIn,VisibilityMPH,Wind Direction,Wind SpeedMPH,Gust SpeedMPH,PrecipitationIn,Events,Conditions,WindDirDegrees,DateUTC
12:49 AM,39.2,35.6,87,29.64,9.0,West,17.3,28.8,0.00,Rain,Light Rain,260,2013-02-27 06:49:00
12:54 AM,39.0,35.1,86,29.65,10.0,WSW,17.3,28.8,0.00,Rain,Light Rain,250,2013-02-27 06:54:00
1:04 AM,39.2,35.6,87,29.65,10.0,WSW,18.4,26.5,0.00,,Overcast,240,2013-02-27 07:04:00
1:54 AM,37.9,34.0,86,29.68,7.0,WSW,13.8,-,0.00,,Overcast,250,2013-02-27 07:54:00
2:37 AM,37.4,32.0,81,29.67,10.0,West,9.2,-,N/A,,Overcast,270,2013-02-27 08:37:00
2:54 AM,37.0,32.0,82,29.69,10.0,WSW,12.7,-,N/A,,Overcast,250,2013-02-27 08:54:00
3:54 AM,37.0,30.9,79,29.69,10.0,West,13.8,-,N/A,,Overcast,260,2013-02-27 09:54:00
4:54 AM,36.0,30.9,82,29.72,9.0,WSW,15.0,20.7,0.00,Rain,Light Rain,250,2013-02-27 10:54:00
5:54 AM,36.0,30.0,79,29.74,10.0,West,18.4,29.9,0.00,,Overcast,260,2013-02-27 11:54:00
6:54 AM,36.0,30.0,79,29.75,10.0,WSW,13.8,-,N/A,,Overcast,250,2013-02-27 12:54:00
7:54 AM,36.0,30.0,79,29.77,10.0,WSW,16.1,-,N/A,,Overcast,240,2013-02-27 13:54:00
8:25 AM,37.4,30.2,75,29.76,10.0,WSW,13.8,25.3,N/A,,Mostly Cloudy,240,2013-02-27 14:25:00
8:34 AM,37.4,30.2,75,29.76,10.0,WSW,17.3,-,N/A,,Mostly Cloudy,240,2013-02-27 14:34:00
8:54 AM,37.9,28.9,70,29.78,10.0,WSW,16.1,27.6,N/A,,Overcast,250,2013-02-27 14:54:00
9:11 AM,37.4,28.4,70,29.77,10.0,WSW,18.4,24.2,N/A,,Overcast,240,2013-02-27 15:11:00
9:18 AM,37.4,28.4,70,29.77,10.0,WSW,11.5,24.2,N/A,,Overcast,240,2013-02-27 15:18:00
9:31 AM,37.4,28.4,70,29.77,10.0,WSW,15.0,20.7,N/A,,Overcast,250,2013-02-27 15:31:00
9:38 AM,37.4,28.4,70,29.77,10.0,WSW,12.7,-,N/A,,Overcast,240,2013-02-27 15:38:00
9:54 AM,37.9,28.9,70,29.78,10.0,WSW,16.1,-,N/A,,Overcast,250,2013-02-27 15:54:00
10:20 AM,37.4,28.4,70,29.78,10.0,West,16.1,23.0,N/A,,Overcast,260,2013-02-27 16:20:00
10:31 AM,37.4,28.4,70,29.78,10.0,WSW,11.5,20.7,N/A,,Overcast,250,2013-02-27 16:31:00
10:47 AM,37.4,28.4,70,29.78,10.0,West,15.0,24.2,N/A,,Overcast,260,2013-02-27 16:47:00
10:54 AM,37.9,28.0,68,29.79,10.0,WSW,17.3,24.2,N/A,,Overcast,250,2013-02-27 16:54:00
11:17 AM,37.4,28.4,70,29.77,10.0,WSW,13.8,-,N/A,,Overcast,250,2013-02-27 17:17:00
11:54 AM,37.9,28.0,68,29.78,10.0,WSW,17.3,25.3,N/A,,Overcast,240,2013-02-27 17:54:00
12:54 PM,39.0,27.0,62,29.78,10.0,WSW,15.0,25.3,N/A,,Overcast,240,2013-02-27 18:54:00
1:54 PM,39.0,28.0,65,29.78,10.0,WSW,17.3,24.2,0.00,,Overcast,240,2013-02-27 19:54:00
2:54 PM,37.9,30.0,73,29.79,9.0,West,13.8,26.5,0.00,Snow,Light Snow,260,2013-02-27 20:54:00
3:09 PM,37.4,30.2,75,29.78,9.0,WSW,16.1,-,0.00,Rain,Light Rain,240,2013-02-27 21:09:00
3:22 PM,37.4,32.0,81,29.78,10.0,WSW,15.0,-,0.00,Rain,Light Rain,250,2013-02-27 21:22:00
3:42 PM,37.4,30.2,75,29.79,10.0,WSW,15.0,-,0.00,Rain,Light Rain,240,2013-02-27 21:42:00
3:54 PM,37.0,32.0,82,29.80,8.0,SW,16.1,-,0.00,Rain,Light Rain,230,2013-02-27 21:54:00
4:22 PM,37.4,32.0,81,29.79,10.0,WSW,13.8,-,0.01,Rain,Light Rain,240,2013-02-27 22:22:00
4:42 PM,37.4,32.0,81,29.80,10.0,WSW,12.7,-,0.01,Rain,Light Rain,240,2013-02-27 22:42:00
4:54 PM,35.1,30.9,85,29.82,2.5,West,18.4,24.2,0.01,Snow,Light Snow,270,2013-02-27 22:54:00
4:57 PM,33.8,30.2,87,29.81,1.8,West,16.1,24.2,0.01,Snow,Light Snow,270,2013-02-27 22:57:00
5:11 PM,33.8,30.2,87,29.81,2.5,WSW,12.7,-,0.02,Snow,Light Snow,250,2013-02-27 23:11:00
5:19 PM,35.6,30.2,81,29.81,6.0,West,12.7,-,0.02,Snow,Light Snow,260,2013-02-27 23:19:00
5:26 PM,35.6,30.2,81,29.82,8.0,West,11.5,-,0.02,,Overcast,260,2013-02-27 23:26:00
5:54 PM,35.1,30.9,85,29.83,9.0,WSW,9.2,-,0.02,Rain,Light Rain,250,2013-02-27 23:54:00
6:54 PM,34.0,30.0,85,29.86,10.0,West,15.0,20.7,0.00,,Overcast,270,2013-02-28 00:54:00
7:02 PM,33.8,30.2,87,29.84,10.0,West,12.7,20.7,N/A,,Overcast,270,2013-02-28 01:02:00
7:54 PM,35.6,30.2,81,29.85,8.0,West,11.5,-,N/A,Snow,Light Snow,260,2013-02-28 01:54:00
8:54 PM,35.1,28.9,78,29.86,10.0,West,12.7,-,0.00,,Overcast,270,2013-02-28 02:54:00
9:01 PM,35.6,28.4,75,29.85,10.0,West,13.8,-,N/A,,Overcast,260,2013-02-28 03:01:00
9:54 PM,34.0,28.9,82,29.87,7.0,West,6.9,-,0.00,Snow,Light Snow,270,2013-02-28 03:54:00
10:42 PM,33.8,28.4,81,29.85,8.0,West,10.4,-,0.00,,Overcast,260,2013-02-28 04:42:00
10:54 PM,34.0,28.0,79,29.86,8.0,West,11.5,-,0.00,,Overcast,270,2013-02-28 04:54:00
11:54 PM,33.1,28.0,82,29.86,9.0,West,11.5,19.6,0.00,,Overcast,270,2013-02-28 05:54:00